![]() |
EMODnet Physics ERDDAP
Easier access to scientific data |
log in|
Brought to you by EMODnet Physics |
| Dataset Title: | NDBC - Collection of dew point temperature (DEWT) TimeSeries - IN SITU MultiPointTimeSeriesObservation
|
| Institution: | NDBC (Dataset ID: TS_DEWT_NDBC) |
| Information: | Summary
| License
| FGDC
| ISO 19115
| Metadata
| Background
| Subset
| Data Access Form
| Make a graph
|
| Name | Last modified | Size | Description | |
|---|---|---|---|---|
| Parent Directory | - | - | ||
| MKGM4_TS_DEWT_012007.nc | 20-Dec-2024 08:21 | 429684 | ||
| MKGM4_TS_DEWT_012008.nc | 20-Dec-2024 08:23 | 429680 | ||
| MKGM4_TS_DEWT_012009.nc | 20-Dec-2024 08:26 | 429571 | ||
| MKGM4_TS_DEWT_012010.nc | 20-Dec-2024 08:28 | 450840 | ||
| MKGM4_TS_DEWT_012011.nc | 20-Dec-2024 08:31 | 450800 | ||
| MKGM4_TS_DEWT_012012.nc | 20-Dec-2024 08:33 | 448379 | ||
| MKGM4_TS_DEWT_012013.nc | 20-Dec-2024 08:36 | 450045 | ||
| MKGM4_TS_DEWT_012014.nc | 20-Dec-2024 08:46 | 450154 | ||
| MKGM4_TS_DEWT_012015.nc | 20-Dec-2024 08:50 | 451100 | ||
| MKGM4_TS_DEWT_012016.nc | 20-Dec-2024 08:56 | 450252 | ||
| MKGM4_TS_DEWT_012017.nc | 20-Dec-2024 09:02 | 428329 | ||
| MKGM4_TS_DEWT_012018.nc | 20-Dec-2024 09:10 | 432151 | ||
| MKGM4_TS_DEWT_012019.nc | 20-Dec-2024 09:20 | 449931 | ||
| MKGM4_TS_DEWT_012020.nc | 20-Dec-2024 09:27 | 429904 | ||
| MKGM4_TS_DEWT_012021.nc | 20-Dec-2024 09:33 | 429896 | ||
| MKGM4_TS_DEWT_012022.nc | 20-Dec-2024 09:38 | 429903 | ||
| MKGM4_TS_DEWT_012023.nc | 20-Dec-2024 09:44 | 429220 | ||
| MKGM4_TS_DEWT_012025.nc | 07-Feb-2025 11:27 | 429896 | ||
| MKGM4_TS_DEWT_012026.nc | 02-Feb-2026 17:44 | 450019 | ||
| MKGM4_TS_DEWT_022007.nc | 20-Dec-2024 08:21 | 449435 | ||
| MKGM4_TS_DEWT_022008.nc | 20-Dec-2024 08:23 | 449991 | ||
| MKGM4_TS_DEWT_022009.nc | 20-Dec-2024 08:26 | 444770 | ||
| MKGM4_TS_DEWT_022010.nc | 20-Dec-2024 08:28 | 418867 | ||
| MKGM4_TS_DEWT_022011.nc | 20-Dec-2024 08:31 | 450224 | ||
| MKGM4_TS_DEWT_022012.nc | 20-Dec-2024 08:33 | 449912 | ||
| MKGM4_TS_DEWT_022013.nc | 20-Dec-2024 08:36 | 448996 | ||
| MKGM4_TS_DEWT_022014.nc | 20-Dec-2024 08:46 | 429885 | ||
| MKGM4_TS_DEWT_022015.nc | 20-Dec-2024 08:50 | 429898 | ||
| MKGM4_TS_DEWT_022016.nc | 20-Dec-2024 08:56 | 429336 | ||
| MKGM4_TS_DEWT_022017.nc | 20-Dec-2024 09:02 | 428988 | ||
| MKGM4_TS_DEWT_022018.nc | 20-Dec-2024 09:11 | 428995 | ||
| MKGM4_TS_DEWT_022019.nc | 20-Dec-2024 09:20 | 425372 | ||
| MKGM4_TS_DEWT_022020.nc | 20-Dec-2024 09:28 | 429359 | ||
| MKGM4_TS_DEWT_022021.nc | 20-Dec-2024 09:33 | 429347 | ||
| MKGM4_TS_DEWT_022022.nc | 20-Dec-2024 09:39 | 429352 | ||
| MKGM4_TS_DEWT_022023.nc | 20-Dec-2024 09:44 | 429353 | ||
| MKGM4_TS_DEWT_022025.nc | 01-Mar-2025 06:22 | 429347 | ||
| MKGM4_TS_DEWT_022026.nc | 01-Mar-2026 07:07 | 426100 | ||
| MKGM4_TS_DEWT_032007.nc | 20-Dec-2024 08:21 | 429315 | ||
| MKGM4_TS_DEWT_032008.nc | 20-Dec-2024 08:24 | 429340 | ||
| MKGM4_TS_DEWT_032009.nc | 20-Dec-2024 08:26 | 429352 | ||
| MKGM4_TS_DEWT_032010.nc | 20-Dec-2024 08:29 | 429353 | ||
| MKGM4_TS_DEWT_032011.nc | 20-Dec-2024 08:31 | 449400 | ||
| MKGM4_TS_DEWT_032012.nc | 20-Dec-2024 08:33 | 449804 | ||
| MKGM4_TS_DEWT_032013.nc | 20-Dec-2024 08:36 | 448878 | ||
| MKGM4_TS_DEWT_032014.nc | 20-Dec-2024 08:46 | 449646 | ||
| MKGM4_TS_DEWT_032015.nc | 20-Dec-2024 08:51 | 449188 | ||
| MKGM4_TS_DEWT_032016.nc | 20-Dec-2024 08:57 | 448722 | ||
| MKGM4_TS_DEWT_032017.nc | 20-Dec-2024 09:03 | 448864 | ||
| MKGM4_TS_DEWT_032018.nc | 20-Dec-2024 09:13 | 449091 | ||
| MKGM4_TS_DEWT_032019.nc | 20-Dec-2024 09:21 | 450365 | ||
| MKGM4_TS_DEWT_032020.nc | 20-Dec-2024 09:28 | 430176 | ||
| MKGM4_TS_DEWT_032021.nc | 20-Dec-2024 09:34 | 449452 | ||
| MKGM4_TS_DEWT_032022.nc | 20-Dec-2024 09:39 | 429556 | ||
| MKGM4_TS_DEWT_032023.nc | 20-Dec-2024 09:45 | 429559 | ||
| MKGM4_TS_DEWT_032025.nc | 02-Apr-2025 04:45 | 429559 | ||
| MKGM4_TS_DEWT_032026.nc | 25-Mar-2026 09:58 | 447829 | ||
| MKGM4_TS_DEWT_042007.nc | 20-Dec-2024 08:21 | 429559 | ||
| MKGM4_TS_DEWT_042008.nc | 20-Dec-2024 08:24 | 448364 | ||
| MKGM4_TS_DEWT_042009.nc | 20-Dec-2024 08:26 | 448923 | ||
| MKGM4_TS_DEWT_042010.nc | 20-Dec-2024 08:29 | 449069 | ||
| MKGM4_TS_DEWT_042011.nc | 20-Dec-2024 08:31 | 449586 | ||
| MKGM4_TS_DEWT_042012.nc | 20-Dec-2024 08:34 | 448966 | ||
| MKGM4_TS_DEWT_042013.nc | 20-Dec-2024 08:37 | 449133 | ||
| MKGM4_TS_DEWT_042014.nc | 20-Dec-2024 08:47 | 448881 | ||
| MKGM4_TS_DEWT_042015.nc | 20-Dec-2024 08:51 | 429555 | ||
| MKGM4_TS_DEWT_042016.nc | 20-Dec-2024 08:57 | 429562 | ||
| MKGM4_TS_DEWT_042017.nc | 20-Dec-2024 09:03 | 429669 | ||
| MKGM4_TS_DEWT_042018.nc | 20-Dec-2024 09:13 | 429600 | ||
| MKGM4_TS_DEWT_042019.nc | 20-Dec-2024 09:22 | 429193 | ||
| MKGM4_TS_DEWT_042020.nc | 20-Dec-2024 09:29 | 429670 | ||
| MKGM4_TS_DEWT_042021.nc | 20-Dec-2024 09:34 | 429683 | ||
| MKGM4_TS_DEWT_042022.nc | 20-Dec-2024 09:40 | 426933 | ||
| MKGM4_TS_DEWT_042023.nc | 20-Dec-2024 09:45 | 429677 | ||
| MKGM4_TS_DEWT_042025.nc | 01-May-2025 06:23 | 429678 | ||
| MKGM4_TS_DEWT_052007.nc | 20-Dec-2024 08:22 | 429683 | ||
| MKGM4_TS_DEWT_052008.nc | 20-Dec-2024 08:24 | 427340 | ||
| MKGM4_TS_DEWT_052009.nc | 20-Dec-2024 08:26 | 429675 | ||
| MKGM4_TS_DEWT_052010.nc | 20-Dec-2024 08:29 | 429686 | ||
| MKGM4_TS_DEWT_052011.nc | 20-Dec-2024 08:31 | 429676 | ||
| MKGM4_TS_DEWT_052012.nc | 20-Dec-2024 08:34 | 429677 | ||
| MKGM4_TS_DEWT_052013.nc | 20-Dec-2024 08:37 | 450618 | ||
| MKGM4_TS_DEWT_052014.nc | 20-Dec-2024 08:47 | 450476 | ||
| MKGM4_TS_DEWT_052015.nc | 20-Dec-2024 08:52 | 450957 | ||
| MKGM4_TS_DEWT_052016.nc | 20-Dec-2024 08:58 | 450141 | ||
| MKGM4_TS_DEWT_052017.nc | 20-Dec-2024 09:04 | 450949 | ||
| MKGM4_TS_DEWT_052018.nc | 20-Dec-2024 09:14 | 450134 | ||
| MKGM4_TS_DEWT_052019.nc | 20-Dec-2024 09:22 | 450429 | ||
| MKGM4_TS_DEWT_052020.nc | 20-Dec-2024 09:29 | 450381 | ||
| MKGM4_TS_DEWT_052021.nc | 20-Dec-2024 09:35 | 448840 | ||
| MKGM4_TS_DEWT_052022.nc | 20-Dec-2024 09:40 | 450241 | ||
| MKGM4_TS_DEWT_052023.nc | 20-Dec-2024 09:45 | 449826 | ||
| MKGM4_TS_DEWT_052025.nc | 01-Jun-2025 06:59 | 421168 | ||
| MKGM4_TS_DEWT_062007.nc | 20-Dec-2024 08:22 | 429902 | ||
| MKGM4_TS_DEWT_062008.nc | 20-Dec-2024 08:24 | 429902 | ||
| MKGM4_TS_DEWT_062009.nc | 20-Dec-2024 08:27 | 450225 | ||
| MKGM4_TS_DEWT_062010.nc | 20-Dec-2024 08:29 | 429903 | ||
| MKGM4_TS_DEWT_062011.nc | 20-Dec-2024 08:32 | 450162 | ||
| MKGM4_TS_DEWT_062012.nc | 20-Dec-2024 08:34 | 449641 | ||
| MKGM4_TS_DEWT_062013.nc | 20-Dec-2024 08:37 | 451359 | ||
| MKGM4_TS_DEWT_062014.nc | 20-Dec-2024 08:47 | 423060 | ||
| MKGM4_TS_DEWT_062015.nc | 20-Dec-2024 08:52 | 450914 | ||
| MKGM4_TS_DEWT_062016.nc | 20-Dec-2024 08:58 | 450888 | ||
| MKGM4_TS_DEWT_062017.nc | 20-Dec-2024 09:04 | 449542 | ||
| MKGM4_TS_DEWT_062018.nc | 20-Dec-2024 09:14 | 451265 | ||
| MKGM4_TS_DEWT_062019.nc | 20-Dec-2024 09:23 | 429904 | ||
| MKGM4_TS_DEWT_062020.nc | 20-Dec-2024 09:30 | 429901 | ||
| MKGM4_TS_DEWT_062021.nc | 20-Dec-2024 09:35 | 429320 | ||
| MKGM4_TS_DEWT_062022.nc | 20-Dec-2024 09:41 | 429335 | ||
| MKGM4_TS_DEWT_062023.nc | 20-Dec-2024 09:46 | 429063 | ||
| MKGM4_TS_DEWT_062025.nc | 17-Jun-2025 05:38 | 429357 | ||
| MKGM4_TS_DEWT_072006.nc | 20-Dec-2024 08:20 | 429351 | ||
| MKGM4_TS_DEWT_072007.nc | 20-Dec-2024 08:22 | 429338 | ||
| MKGM4_TS_DEWT_072008.nc | 20-Dec-2024 08:24 | 429358 | ||
| MKGM4_TS_DEWT_072009.nc | 20-Dec-2024 08:27 | 429356 | ||
| MKGM4_TS_DEWT_072010.nc | 20-Dec-2024 08:29 | 429353 | ||
| MKGM4_TS_DEWT_072011.nc | 20-Dec-2024 08:32 | 429338 | ||
| MKGM4_TS_DEWT_072012.nc | 20-Dec-2024 08:34 | 429353 | ||
| MKGM4_TS_DEWT_072013.nc | 20-Dec-2024 08:37 | 429311 | ||
| MKGM4_TS_DEWT_072014.nc | 20-Dec-2024 08:48 | 429359 | ||
| MKGM4_TS_DEWT_072015.nc | 20-Dec-2024 08:53 | 427968 | ||
| MKGM4_TS_DEWT_072016.nc | 20-Dec-2024 08:59 | 449508 | ||
| MKGM4_TS_DEWT_072017.nc | 20-Dec-2024 09:06 | 448540 | ||
| MKGM4_TS_DEWT_072018.nc | 20-Dec-2024 09:15 | 449175 | ||
| MKGM4_TS_DEWT_072019.nc | 20-Dec-2024 09:23 | 449347 | ||
| MKGM4_TS_DEWT_072020.nc | 20-Dec-2024 09:30 | 448831 | ||
| MKGM4_TS_DEWT_072021.nc | 20-Dec-2024 09:35 | 449051 | ||
| MKGM4_TS_DEWT_072022.nc | 20-Dec-2024 09:41 | 449225 | ||
| MKGM4_TS_DEWT_072023.nc | 20-Dec-2024 09:46 | 449649 | ||
| MKGM4_TS_DEWT_072025.nc | 16-Aug-2025 07:21 | 428333 | ||
| MKGM4_TS_DEWT_082006.nc | 20-Dec-2024 08:20 | 450015 | ||
| MKGM4_TS_DEWT_082007.nc | 20-Dec-2024 08:22 | 450661 | ||
| MKGM4_TS_DEWT_082008.nc | 20-Dec-2024 08:25 | 449337 | ||
| MKGM4_TS_DEWT_082009.nc | 20-Dec-2024 08:27 | 429557 | ||
| MKGM4_TS_DEWT_082010.nc | 20-Dec-2024 08:30 | 429560 | ||
| MKGM4_TS_DEWT_082011.nc | 20-Dec-2024 08:32 | 449098 | ||
| MKGM4_TS_DEWT_082012.nc | 20-Dec-2024 08:35 | 429557 | ||
| MKGM4_TS_DEWT_082013.nc | 20-Dec-2024 08:38 | 448783 | ||
| MKGM4_TS_DEWT_082014.nc | 20-Dec-2024 08:48 | 449409 | ||
| MKGM4_TS_DEWT_082015.nc | 20-Dec-2024 08:53 | 449179 | ||
| MKGM4_TS_DEWT_082016.nc | 20-Dec-2024 08:59 | 439232 | ||
| MKGM4_TS_DEWT_082017.nc | 20-Dec-2024 09:06 | 448962 | ||
| MKGM4_TS_DEWT_082018.nc | 20-Dec-2024 09:15 | 449113 | ||
| MKGM4_TS_DEWT_082019.nc | 20-Dec-2024 09:24 | 449440 | ||
| MKGM4_TS_DEWT_082020.nc | 20-Dec-2024 09:31 | 449293 | ||
| MKGM4_TS_DEWT_082021.nc | 20-Dec-2024 09:36 | 429559 | ||
| MKGM4_TS_DEWT_082022.nc | 20-Dec-2024 09:42 | 429555 | ||
| MKGM4_TS_DEWT_082023.nc | 20-Dec-2024 09:47 | 429669 | ||
| MKGM4_TS_DEWT_082025.nc | 01-Sep-2025 07:41 | 429671 | ||
| MKGM4_TS_DEWT_092006.nc | 20-Dec-2024 08:20 | 429673 | ||
| MKGM4_TS_DEWT_092007.nc | 20-Dec-2024 08:22 | 429678 | ||
| MKGM4_TS_DEWT_092008.nc | 20-Dec-2024 08:25 | 429687 | ||
| MKGM4_TS_DEWT_092009.nc | 20-Dec-2024 08:27 | 429660 | ||
| MKGM4_TS_DEWT_092010.nc | 20-Dec-2024 08:30 | 429413 | ||
| MKGM4_TS_DEWT_092011.nc | 20-Dec-2024 08:32 | 429683 | ||
| MKGM4_TS_DEWT_092012.nc | 20-Dec-2024 08:35 | 429679 | ||
| MKGM4_TS_DEWT_092013.nc | 20-Dec-2024 08:38 | 425245 | ||
| MKGM4_TS_DEWT_092014.nc | 20-Dec-2024 08:49 | 429683 | ||
| MKGM4_TS_DEWT_092015.nc | 20-Dec-2024 08:54 | 429683 | ||
| MKGM4_TS_DEWT_092016.nc | 20-Dec-2024 09:00 | 429675 | ||
| MKGM4_TS_DEWT_092017.nc | 20-Dec-2024 09:07 | 432437 | ||
| MKGM4_TS_DEWT_092018.nc | 20-Dec-2024 09:16 | 450350 | ||
| MKGM4_TS_DEWT_092019.nc | 20-Dec-2024 09:25 | 450496 | ||
| MKGM4_TS_DEWT_092020.nc | 20-Dec-2024 09:31 | 450190 | ||
| MKGM4_TS_DEWT_092021.nc | 20-Dec-2024 09:36 | 450492 | ||
| MKGM4_TS_DEWT_092022.nc | 20-Dec-2024 09:42 | 449759 | ||
| MKGM4_TS_DEWT_092023.nc | 20-Dec-2024 09:47 | 450269 | ||
| MKGM4_TS_DEWT_092025.nc | 01-Oct-2025 08:02 | 450075 | ||
| MKGM4_TS_DEWT_102006.nc | 20-Dec-2024 08:20 | 449586 | ||
| MKGM4_TS_DEWT_102007.nc | 20-Dec-2024 08:23 | 439451 | ||
| MKGM4_TS_DEWT_102008.nc | 20-Dec-2024 08:25 | 451410 | ||
| MKGM4_TS_DEWT_102009.nc | 20-Dec-2024 08:28 | 450831 | ||
| MKGM4_TS_DEWT_102010.nc | 20-Dec-2024 08:30 | 451181 | ||
| MKGM4_TS_DEWT_102011.nc | 20-Dec-2024 08:32 | 429902 | ||
| MKGM4_TS_DEWT_102012.nc | 20-Dec-2024 08:35 | 429903 | ||
| MKGM4_TS_DEWT_102013.nc | 20-Dec-2024 08:40 | 451414 | ||
| MKGM4_TS_DEWT_102014.nc | 20-Dec-2024 08:49 | 429902 | ||
| MKGM4_TS_DEWT_102015.nc | 20-Dec-2024 08:54 | 450239 | ||
| MKGM4_TS_DEWT_102016.nc | 20-Dec-2024 09:00 | 450258 | ||
| MKGM4_TS_DEWT_102017.nc | 20-Dec-2024 09:07 | 450107 | ||
| MKGM4_TS_DEWT_102018.nc | 20-Dec-2024 09:17 | 449823 | ||
| MKGM4_TS_DEWT_102019.nc | 20-Dec-2024 09:26 | 449544 | ||
| MKGM4_TS_DEWT_102020.nc | 20-Dec-2024 09:32 | 451135 | ||
| MKGM4_TS_DEWT_102021.nc | 20-Dec-2024 09:37 | 449211 | ||
| MKGM4_TS_DEWT_102022.nc | 20-Dec-2024 09:42 | 429903 | ||
| MKGM4_TS_DEWT_102023.nc | 20-Dec-2024 09:48 | 429899 | ||
| MKGM4_TS_DEWT_102024.nc | 12-Jan-2025 22:27 | 429819 | ||
| MKGM4_TS_DEWT_102025.nc | 01-Nov-2025 07:13 | 1476131 | ||
| MKGM4_TS_DEWT_112006.nc | 20-Dec-2024 08:20 | 1476959 | ||
| MKGM4_TS_DEWT_112007.nc | 20-Dec-2024 08:23 | 1477704 | ||
| MKGM4_TS_DEWT_112008.nc | 20-Dec-2024 08:25 | 1474655 | ||
| MKGM4_TS_DEWT_112009.nc | 20-Dec-2024 08:28 | 1475660 | ||
| MKGM4_TS_DEWT_112010.nc | 20-Dec-2024 08:30 | 1626648 | ||
| MKGM4_TS_DEWT_112011.nc | 20-Dec-2024 08:33 | 1625663 | ||
| MKGM4_TS_DEWT_112012.nc | 20-Dec-2024 08:35 | 1626225 | ||
| MKGM4_TS_DEWT_112013.nc | 20-Dec-2024 08:45 | 1626117 | ||
| MKGM4_TS_DEWT_112014.nc | 20-Dec-2024 08:49 | 1625815 | ||
| MKGM4_TS_DEWT_112015.nc | 20-Dec-2024 08:55 | 1626794 | ||
| MKGM4_TS_DEWT_112016.nc | 20-Dec-2024 09:01 | 1626802 | ||
| MKGM4_TS_DEWT_112017.nc | 20-Dec-2024 09:08 | 1625200 | ||
| MKGM4_TS_DEWT_112018.nc | 20-Dec-2024 09:19 | 1626690 | ||
| MKGM4_TS_DEWT_112019.nc | 20-Dec-2024 09:26 | 1626349 | ||
| MKGM4_TS_DEWT_112020.nc | 20-Dec-2024 09:32 | 1626550 | ||
| MKGM4_TS_DEWT_112021.nc | 20-Dec-2024 09:37 | 1626700 | ||
| MKGM4_TS_DEWT_112022.nc | 20-Dec-2024 09:43 | 428788 | ||
| MKGM4_TS_DEWT_112023.nc | 20-Dec-2024 09:48 | 1463924 | ||
| MKGM4_TS_DEWT_112024.nc | 17-Jan-2025 04:26 | 1472199 | ||
| MKGM4_TS_DEWT_112025.nc | 01-Dec-2025 04:39 | 1469161 | ||
| MKGM4_TS_DEWT_122006.nc | 20-Dec-2024 08:21 | 1464725 | ||
| MKGM4_TS_DEWT_122007.nc | 20-Dec-2024 08:23 | 1469903 | ||
| MKGM4_TS_DEWT_122008.nc | 20-Dec-2024 08:25 | 1473372 | ||
| MKGM4_TS_DEWT_122009.nc | 20-Dec-2024 08:28 | 1469902 | ||
| MKGM4_TS_DEWT_122010.nc | 20-Dec-2024 08:30 | 1469535 | ||
| MKGM4_TS_DEWT_122011.nc | 20-Dec-2024 08:33 | 1469422 | ||
| MKGM4_TS_DEWT_122012.nc | 20-Dec-2024 08:35 | 1472911 | ||
| MKGM4_TS_DEWT_122013.nc | 20-Dec-2024 08:45 | 1469758 | ||
| MKGM4_TS_DEWT_122014.nc | 20-Dec-2024 08:50 | 1469574 | ||
| MKGM4_TS_DEWT_122015.nc | 20-Dec-2024 08:55 | 1469899 | ||
| MKGM4_TS_DEWT_122016.nc | 20-Dec-2024 09:01 | 1473164 | ||
| MKGM4_TS_DEWT_122017.nc | 20-Dec-2024 09:09 | 1469636 | ||
| MKGM4_TS_DEWT_122018.nc | 20-Dec-2024 09:20 | 1469679 | ||
| MKGM4_TS_DEWT_122019.nc | 20-Dec-2024 09:27 | 1468728 | ||
| MKGM4_TS_DEWT_122020.nc | 20-Dec-2024 09:33 | 429835 | ||
| MKGM4_TS_DEWT_122021.nc | 20-Dec-2024 09:38 | 1160956 | ||
| MKGM4_TS_DEWT_122022.nc | 20-Dec-2024 09:43 | 1477068 | ||
| MKGM4_TS_DEWT_122023.nc | 20-Dec-2024 09:48 | 1626080 | ||
| MKGM4_TS_DEWT_122024.nc | 23-Jan-2025 04:09 | 1472664 | ||
| MKGM4_TS_DEWT_122025.nc | 01-Jan-2026 05:35 | 1624300 | ||